Stations météo

réclame
Mon MeteoGroup
Örskär, Suède (2488): Température de l'air & dewpoint: 10.08.2018 03:00:00 - 16.08.2018 03:00:00 (CEST)Örskär, Suède (2488): Vitesse du vent & gusts: 10.08.2018 03:00:00 - 16.08.2018 03:00:00 (CEST)Örskär, Suède (2488): Direction du vent: 10.08.2018 03:00:00 - 16.08.2018 03:00:00 (CEST)Örskär, Suède (2488): reduced air pressure: 10.08.2018 03:00:00 - 16.08.2018 03:00:00 (CEST)Örskär, Suède (2488): visibility: 10.08.2018 03:00:00 - 16.08.2018 03:00:00 (CEST)Örskär, Suède (2488): Quantités de précipitations: 10.08.2018 03:00:00 - 16.08.2018 03:00:00 (CEST)
Date & Time tt [°C] td [°C] ff [km/h] ff [knt] fx [km/h] fx [knt] dd ppp [hPa] vv [km] rr [mm]
16.08.2018 03:00:00 15,5 13,0 16 9 27 15 S 1014,4 24 0,0
16.08.2018 02:00:00 16,0 12,9 21 11 27 15 S 1014,4 3,1 0,0
16.08.2018 01:00:00 16,0 12,4 21 11 27 15 S 1014,4 1,1 0,0
16.08.2018 00:00:00 15,4 11,4 16 9 24 13 S 1014,3 1,2 0,0
15.08.2018 23:00:00 16,0 11,8 17 9 24 13 SSE 1014,1 0,6 0,0
15.08.2018 22:00:00 16,0 10,7 16 8 21 12 SE 1014,0 0,1 0,0
15.08.2018 21:00:00 16,4 10,9 13 7 21 12 SE 1013,6 0,1 0,0
15.08.2018 20:00:00 17,1 10,7 15 8 22 12 SE 1013,3 0,2 0,0
15.08.2018 19:00:00 17,4 10,5 12 6 22 12 ESE 1013,2 0,3 0,0
15.08.2018 18:00:00 18,0 10,1 13 7 20 11 ESE 1012,9 0,9 0,0
15.08.2018 17:00:00 18,4 10,7 14 8 19 11 E 1012,8 0,4 0,0
15.08.2018 16:00:00 18,6 10,7 13 7 19 11 NE 1012,8 0,1 0,0
15.08.2018 15:00:00 18,5 10,8 13 7 19 10 NE 1012,6 0,1 0,0
15.08.2018 14:00:00 17,7 11,5 11 6 14 8 NE 1012,4 0,1 0,0
15.08.2018 13:00:00 17,7 11,5 10 6 18 10 NE 1011,9 0,1 0,0
15.08.2018 12:00:00 18,0 11,6 12 7 19 10 NE 1011,7 0,1 0,0
15.08.2018 11:00:00 17,7 11,7 13 7 22 12 NE 1011,5 0,1 0,0
15.08.2018 10:00:00 17,6 11,6 16 9 24 13 NE 1011,0 0,1 0,0
15.08.2018 09:00:00 17,3 11,3 19 11 26 14 ENE 1010,5 0,1 0,0
15.08.2018 08:00:00 16,5 12,5 22 12 26 14 NE 1010,2 0,1 0,0
15.08.2018 07:00:00 16,2 12,4 22 12 27 15 NE 1009,9 0,1 0,0
15.08.2018 06:00:00 15,9 11,7 22 12 28 15 NE 1009,6 0,1 0,0
15.08.2018 05:00:00 16,2 11,8 22 12 28 15 NE 1009,4 0,1 0,0
15.08.2018 04:00:00 16,3 12,5 26 14 28 15 NE 1009,2 0,1 0,0
15.08.2018 03:00:00 16,3 12,7 24 13 26 14 NE 1009,4 0,2 0,0
15.08.2018 02:00:00 16,6 13,3 17 9 20 11 NE 1009,5 49 0,0
15.08.2018 01:00:00 15,6 12,7 14 8 18 10 ENE 1009,6 50 0,1
15.08.2018 00:00:00 15,9 13,0 13 7 16 9 ENE 1009,6 33 0,0
14.08.2018 23:00:00 16,5 11,8 10 5 18 10 N 1009,6 48 0,0
14.08.2018 22:00:00 15,7 11,7 3 1 24 13 W 1009,7 46 0,0
14.08.2018 21:00:00 16,2 10,9 9 5 26 14 S 1009,7 1,3 0,0
14.08.2018 20:00:00 16,9 13,6 16 9 26 14 E 1009,3 0,2 0,0
14.08.2018 19:00:00 17,1 13,6 19 10 25 13 E 1009,3 0,2 0,1
14.08.2018 18:00:00 17,3 13,6 17 9 29 16 E 1009,7 0,1 0,0
14.08.2018 17:00:00 17,4 13,3 19 10 30 16 E 1009,9 0,1 0,0
14.08.2018 16:00:00 18,2 13,1 22 12 31 17 E 1010,1 0,1 0,0
14.08.2018 15:00:00 18,6 12,8 22 12 31 17 ENE 1010,3 0,1 0,0
14.08.2018 14:00:00 18,6 12,6 24 13 29 16 ENE 1010,4 0,1 0,0
14.08.2018 13:00:00 17,8 12,3 22 12 27 14 NE 1010,5 0,1 0,0
14.08.2018 12:00:00 17,7 11,7 22 12 29 15 NE 1010,7 0,1 0,0
14.08.2018 11:00:00 17,2 11,5 23 12 29 16 NE 1010,7 0,1 0,0
14.08.2018 10:00:00 16,5 11,2 24 13 29 16 NE 1010,7 0,1 0,0
14.08.2018 09:00:00 16,6 11,7 24 13 28 15 NE 1010,5 0,1 0,0
14.08.2018 08:00:00 16,5 12,7 15 8 23 12 NE 1010,4 0,3 0,0
14.08.2018 07:00:00 15,7 13,2 4 2 11 6 WNW 1010,2 49 0,0
14.08.2018 06:00:00 14,6 11,9 7 4 15 8 WSW 1010,1 9 0,0
14.08.2018 05:00:00 14,1 11,1 9 5 19 10 WSW 1010,0 9 0,0
14.08.2018 04:00:00 14,1 10,5 11 6 19 10 WSW 1009,9 0,5 0,0
14.08.2018 03:00:00 14,0 10,0 15 8 21 11 SW 1009,8 0,2 0,0
14.08.2018 02:00:00 14,8 9,4 13 7 25 13 SW 1009,7 0,4 0,0
14.08.2018 01:00:00 15,4 10,2 18 10 25 13 SSW 1009,7 50 0,0
14.08.2018 00:00:00 15,6 11,8 19 10 24 13 SSW 1009,4 5 0,0
13.08.2018 23:00:00 15,7 11,9 19 10 25 14 S 1009,2 2,5 0,0
13.08.2018 22:00:00 15,7 11,5 20 11 25 14 S 1009,1 1,6 0,0
13.08.2018 21:00:00 15,7 10,2 16 9 23 13 S 1009,1 12 0,0
13.08.2018 20:00:00 16,8 9,2 17 9 23 12 S 1008,8 9 0,0
13.08.2018 19:00:00 18,6 8,0 8 4 12 6 S 1008,8 41 0,0
13.08.2018 18:00:00 19,0 8,0 6 3 13 7 SW 1008,8 44 0,0
13.08.2018 17:00:00 18,7 7,2 7 4 13 7 SW 1008,8 24 0,0
13.08.2018 16:00:00 17,5 7,8 2 1 12 7 N 1008,9 23 0,0
13.08.2018 15:00:00 17,3 9,5 9 5 18 10 NNE 1008,9 6 0,0
13.08.2018 14:00:00 17,0 8,7 5 3 28 15 NW 1009,1 44 0,0
13.08.2018 13:00:00 16,9 8,6 13 7 34 19 W 1008,9 39 0,0
13.08.2018 12:00:00 16,1 8,8 23 13 41 22 W 1008,9 35 0,0
13.08.2018 11:00:00 15,7 9,6 29 16 42 23 WNW 1008,7 35 0,0
13.08.2018 10:00:00 15,1 9,7 34 19 45 25 WNW 1008,3 38 0,0
13.08.2018 09:00:00 14,6 9,2 36 20 48 26 WNW 1008,1 40 0,0
13.08.2018 08:00:00 14,1 9,1 40 21 49 27 WNW 1007,8 46 0,0
13.08.2018 07:00:00 14,0 8,8 40 22 49 27 WNW 1007,4 50 0,0
13.08.2018 06:00:00 14,3 8,7 39 21 49 26 WNW 1007,2 48 0,0
13.08.2018 05:00:00 14,6 8,8 40 22 49 26 NW 1007,1 49 0,0
13.08.2018 04:00:00 15,0 9,4 38 21 45 24 WNW 1006,9 50 0,0
13.08.2018 03:00:00 15,5 9,4 36 19 44 24 NW 1006,7 50 0,0
13.08.2018 02:00:00 15,9 10,4 36 19 44 24 NW 1006,4 50 0,0
13.08.2018 01:00:00 15,5 11,7 36 19 43 23 W 1006,4 50 0,0
13.08.2018 00:00:00 14,7 12,4 36 19 42 23 W 1006,3 48 0,0
12.08.2018 23:00:00 15,0 12,3 36 19 40 22 W 1005,9 46 0,0
12.08.2018 22:00:00 15,0 12,1 32 17 40 21 W 1005,9 30 0,0
12.08.2018 21:00:00 15,9 11,3 32 17 40 21 WNW 1005,7 47 0,0
12.08.2018 20:00:00 16,0 10,3 29 16 47 26 NW 1005,4 50 0,0
12.08.2018 19:00:00 15,8 9,9 33 18 49 26 NNW 1005,3 44 0,0
12.08.2018 18:00:00 15,9 11,3 41 22 53 29 NNW 1005,1 33 0,0
12.08.2018 17:00:00 15,8 12,0 34 19 54 29 N 1004,9 32 0,0
12.08.2018 16:00:00 15,7 12,3 41 22 54 29 N 1004,3 32 0,0
12.08.2018 15:00:00 15,9 12,1 42 23 51 28 N 1004,0 42 0,0
12.08.2018 14:00:00 15,8 13,6 34 19 56 30 NNW 1004,0 31 0,0
12.08.2018 13:00:00 15,2 11,2 47 26 56 30 N 1003,5 41 0,0
12.08.2018 12:00:00 15,7 12,1 47 25 55 30 NNE 1003,7 37 0,0
12.08.2018 11:00:00 15,2 11,6 18 10 32 17 N 1003,5 50 0,0
12.08.2018 10:00:00 14,7 11,1 24 13 32 17 N 1003,7 50 0,0
12.08.2018 09:00:00 14,5 12,4 21 11 29 15 NNW 1004,0 50 0,0
12.08.2018 08:00:00 14,4 12,6 16 9 30 16 W 1003,7 30 0,4
12.08.2018 07:00:00 14,1 13,0 22 12 30 16 WSW 1004,4 11 4,8
12.08.2018 06:00:00 14,0 12,7 20 11 27 15 S 1005,1 6 1,5
12.08.2018 05:00:00 15,2 12,1 16 9 23 13 WNW 1005,0 33 0,5
12.08.2018 04:00:00 14,2 12,6 8 4 23 13 S 1006,2 10 1,0
12.08.2018 03:00:00 16,0 11,8 13 7 19 10 SE 1006,2 50 0,0
12.08.2018 02:00:00 16,7 11,2 6 3 19 10 SW 1006,8 50 0,0
12.08.2018 01:00:00 17,2 10,8 14 8 29 15 SSW 1007,8 47 0,0
12.08.2018 00:00:00 17,4 11,2 14 8 29 16 SSW 1008,5 50 0,0
11.08.2018 23:00:00 17,9 11,2 22 12 29 16 SSW 1009,3 50 0,0
11.08.2018 22:00:00 17,4 9,3 16 9 24 13 SSE 1009,8 50 0,0
11.08.2018 21:00:00 18,3 9,9 9 5 16 9 S 1010,1 50 0,0
11.08.2018 20:00:00 19,7 9,9 11 6 16 9 S 1010,4 50 0,0
11.08.2018 19:00:00 20,5 10,0 11 6 23 12 SSW 1010,9 50 0,0
11.08.2018 18:00:00 22,0 9,5 9 5 27 14 SSW 1011,4 50 0,0
11.08.2018 17:00:00 21,3 10,2 20 11 30 16 SSW 1011,8 50 0,0
11.08.2018 16:00:00 22,7 9,8 20 11 39 21 SW 1012,2 47 0,0
11.08.2018 15:00:00 22,8 9,6 26 14 41 22 SW 1012,6 38 0,0
11.08.2018 14:00:00 22,5 8,9 32 17 41 22 SW 1013,0 36 0,0
11.08.2018 13:00:00 21,4 9,3 28 15 41 22 SW 1013,4 39 0,0
11.08.2018 12:00:00 20,4 10,2 30 16 46 25 SW 1013,4 40 0,0
11.08.2018 11:00:00 19,3 10,6 37 20 50 27 SW 1013,2 32 0,0
11.08.2018 10:00:00 18,2 10,6 41 22 59 32 SW 1013,0 35 0,0
11.08.2018 09:00:00 17,8 10,4 44 24 63 34 SW 1012,9 35 0,0
11.08.2018 08:00:00 16,7 10,5 49 26 63 34 SW 1012,6 42 0,0
11.08.2018 07:00:00 15,7 10,2 48 26 66 36 SW 1012,2 44 0,0
11.08.2018 06:00:00 15,6 10,4 48 26 71 38 SW 1011,6 41 0,0
11.08.2018 05:00:00 15,9 10,0 57 31 72 39 SW 1011,0 42 0,0
11.08.2018 04:00:00 16,1 9,7 56 31 74 40 SW 1010,6 46 0,0
11.08.2018 03:00:00 16,5 9,0 54 29 75 41 SW 1010,2 50 0,0
11.08.2018 02:00:00 17,0 8,7 60 32 76 41 SW 1010,1 50 0,0
11.08.2018 01:00:00 17,5 8,6 61 33 80 43 SW 1010,1 50 0,0
11.08.2018 00:00:00 18,1 9,4 61 33 80 43 SW 1010,2 43 0,0
10.08.2018 23:00:00 19,0 9,8 59 32 77 42 SW 1009,9 48 0,0
10.08.2018 22:00:00 20,2 10,0 50 27 77 42 SW 1009,3 50 0,0
10.08.2018 21:00:00 21,2 10,7 55 30 77 42 SW 1008,5 50 0,0
10.08.2018 20:00:00 22,5 11,3 63 34 80 43 SW 1007,6 50 0,0
10.08.2018 19:00:00 23,5 12,8 55 30 80 43 SW 1007,1 49 0,0
10.08.2018 18:00:00 24,4 13,3 61 33 70 38 SW 1006,6 47 0,0
10.08.2018 17:00:00 25,6 15,6 46 25 56 30 SW 1005,9 50 0,0
10.08.2018 16:00:00 27,2 16,2 42 23 56 30 SSW 1005,5 40 0,0
10.08.2018 15:00:00 26,5 17,8 37 20 53 29 SSW 1005,4 38 0,0
10.08.2018 14:00:00 27,4 17,8 34 18 54 29 SSW 1005,5 34 0,0
10.08.2018 13:00:00 26,9 19,3 31 17 54 29 S 1005,8 27 0,0
10.08.2018 12:00:00 24,7 20,2 22 12 37 20 SE 1006,0 24 0,0
10.08.2018 11:00:00 21,9 20,0 23 12 41 22 SE 1006,7 27 0,0
10.08.2018 10:00:00 22,1 19,6 10 5 41 22 SSE 1007,5 19 0,0
10.08.2018 09:00:00 21,4 19,3 26 14 38 20 SE 1008,3 26 0,0
10.08.2018 08:00:00 21,5 19,1 21 12 43 23 SE 1008,7 18 0,0
10.08.2018 07:00:00 20,6 19,8 29 16 43 23 SE 1009,6 4,6 0,0
10.08.2018 06:00:00 20,4 19,1 18 10 26 14 ESE 1010,6 13 0,0
10.08.2018 05:00:00 19,6 18,1 18 10 24 13 ESE 1011,5 12 0,0
10.08.2018 04:00:00 19,3 17,4 16 9 21 11 SE 1012,3 14 0,0
10.08.2018 03:00:00 19,3 16,3 10 5 16 9 S 1012,4 20 0,0

tt = Température de l'air
td = dewpoint
ff = Vitesse du vent
fx = gusts
dd = Direction du vent
ppp = reduced air pressure
vv = visibility
rr = Quantités de précipitations

stations d'obs. à proximité